This demonstration page uses our WeatherBlox Daily Observations layout. Learn more.

Left ArrowRight Arrow

36.17497, -115.13722

Hourly Observations for June 12, 2019

Temp ( °F °C ) Dew Point ( °F °C ) Humidity (%) Winds ( mph kmh ) Pressure ( in mb ) Visibility ( mi km ) Precip ( " mm )
12:53 am 00:53 Clear 84 28.9 30 -1.1 14 14 WNW 8 13 29.91 1013 10 16 0.00 0.00
1:53 am 01:53 Clear 82 27.8 32 0 16 16 W 3 6 29.91 1013 10 16 0.00 0.00
2:53 am 02:53 Clear 83 28.3 30 -1.1 15 15 NW 3 6 29.91 1013 10 16 0.00 0.00
3:53 am 03:53 Clear 82 27.8 27 -2.8 13 13 N 9 15 29.91 1013 10 16 0.00 0.00
4:53 am 04:53 Clear 82 27.8 27 -2.8 13 13 NNW 7 11 29.92 1013 10 16 0.00 0.00
5:53 am 05:53 Sunny 79 26.1 29 -1.7 16 16 Calm 29.94 1014 10 16 0.00 0.00
6:53 am 06:53 Sunny 78 25.6 34 1.1 20 20 N 3 6 29.95 1014 10 16 0.00 0.00
7:53 am 07:53 Sunny 85 29.4 33 0.6 15 15 NE 5 7 29.96 1015 10 16 0.00 0.00
8:53 am 08:53 Sunny 88 31.1 32 0 13 13 VRB 3 6 29.96 1015 10 16 0.00 0.00
9:53 am 09:53 Sunny 92 33.3 29 -1.7 10 10 Calm 29.95 1014 10 16 0.00 0.00
10:53 am 10:53 Sunny 95 35 30 -1.1 10 10 SE 5 7 29.94 1014 10 16 0.00 0.00
11:53 am 11:53 Sunny 100 37.8 30 -1.1 8 8 ESE 7 11 29.92 1013 10 16 0.00 0.00
12:53 pm 12:53 Sunny 100 37.8 28 -2.2 8 8 SE 8 13 29.89 1012 10 16 0.00 0.00
1:53 pm 13:53 Sunny 102 38.9 27 -2.8 7 7 VRB 5 7 29.86 1011 10 16 0.00 0.00
2:53 pm 14:53 Sunny 103 39.4 28 -2.2 7 7 SE 9 15 29.83 1010 10 16 0.00 0.00
3:53 pm 15:53 Sunny 104 40 27 -2.8 7 7 VRB 6 9 29.80 1009 10 16 0.00 0.00
4:53 pm 16:53 Sunny 104 40 29 -1.7 7 7 SSE 9 15 29.77 1008 10 16 0.00 0.00
5:53 pm 17:53 Sunny 105 40.6 33 0.6 8 8 SSW 14 22 29.75 1007 10 16 0.00 0.00
6:53 pm 18:53 Sunny 103 39.4 32 0 8 8 W 12 19 29.75 1007 10 16 0.00 0.00
7:53 pm 19:53 Sunny 101 38.3 34 1.1 10 10 W 7 11 29.74 1007 10 16 0.00 0.00
8:53 pm 20:53 Clear 98 36.7 34 1.1 11 11 WSW 3 6 29.75 1007 10 16 0.00 0.00
9:53 pm 21:53 Clear 96 35.6 35 1.7 12 12 Calm 29.76 1008 10 16 0.00 0.00
10:53 pm 22:53 Clear 91 32.8 36 2.2 14 14 NNW 3 6 29.76 1008 10 16 0.00 0.00
11:53 pm 23:53 Clear 89 31.7 37 2.8 16 16 NW 8 13 29.76 1008 10 16 0.00 0.00

Powered by AerisWeather